TimePST,TemperatureF,Dew PointF,Humidity,Sea Level PressureIn,VisibilityMPH,Wind Direction,Wind SpeedMPH,Gust SpeedMPH,PrecipitationIn,Events,Conditions,WindDirDegrees,DateUTC
12:18 AM,37.4,33.8,87,29.87,10.0,WSW,4.6,-,N/A,,Overcast,240,2013-03-07 08:18:00
12:53 AM,37.0,33.1,86,29.91,7.0,WNW,4.6,-,N/A,,Overcast,290,2013-03-07 08:53:00
1:53 AM,36.0,33.1,89,29.93,6.0,Calm,Calm,-,N/A,,Overcast,0,2013-03-07 09:53:00
2:53 AM,35.1,32.0,89,29.94,4.0,SW,3.5,-,N/A,,Partly Cloudy,230,2013-03-07 10:53:00
3:53 AM,33.1,30.0,89,29.96,7.0,WNW,3.5,-,N/A,,Overcast,290,2013-03-07 11:53:00
4:53 AM,30.9,28.9,92,29.98,6.0,Calm,Calm,-,N/A,,Mostly Cloudy,0,2013-03-07 12:53:00
5:25 AM,33.8,30.2,87,29.96,6.0,Calm,Calm,-,N/A,,Partly Cloudy,0,2013-03-07 13:25:00
5:39 AM,32.0,28.4,87,29.96,6.0,Calm,Calm,-,N/A,,Mostly Cloudy,0,2013-03-07 13:39:00
5:53 AM,30.9,28.9,92,30.00,6.0,WNW,3.5,-,N/A,,Overcast,290,2013-03-07 13:53:00
6:02 AM,30.2,28.4,93,29.97,6.0,West,3.5,-,N/A,,Mostly Cloudy,260,2013-03-07 14:02:00
6:53 AM,32.0,28.9,88,30.02,4.0,West,3.5,-,N/A,,Overcast,270,2013-03-07 14:53:00
7:53 AM,34.0,30.9,89,30.04,3.0,Calm,Calm,-,N/A,,Mostly Cloudy,0,2013-03-07 15:53:00
8:07 AM,35.6,32.0,87,30.02,4.0,Calm,Calm,-,N/A,,Scattered Clouds,0,2013-03-07 16:07:00
8:53 AM,39.9,35.1,83,30.05,7.0,WSW,3.5,-,N/A,,Clear,250,2013-03-07 16:53:00
9:53 AM,44.1,36.0,73,30.06,10.0,Calm,Calm,-,N/A,,Clear,0,2013-03-07 17:53:00
10:53 AM,46.9,36.0,66,30.06,10.0,Calm,Calm,-,N/A,,Clear,0,2013-03-07 18:53:00
11:53 AM,50.0,34.0,54,30.05,10.0,Calm,Calm,-,N/A,,Clear,0,2013-03-07 19:53:00
12:53 PM,52.0,30.9,45,30.04,10.0,Variable,4.6,-,N/A,,Clear,0,2013-03-07 20:53:00
1:53 PM,53.1,30.9,43,30.03,10.0,Variable,3.5,-,N/A,,Clear,0,2013-03-07 21:53:00
2:53 PM,55.0,30.9,40,30.02,10.0,ENE,4.6,-,N/A,,Mostly Cloudy,70,2013-03-07 22:53:00
3:53 PM,55.0,30.0,38,30.01,10.0,Calm,Calm,-,N/A,,Mostly Cloudy,0,2013-03-07 23:53:00
4:53 PM,54.0,30.0,40,30.01,10.0,Calm,Calm,-,N/A,,Scattered Clouds,0,2013-03-08 00:53:00
5:53 PM,48.9,30.9,50,30.02,10.0,Calm,Calm,-,N/A,,Partly Cloudy,0,2013-03-08 01:53:00
6:53 PM,39.0,30.9,73,30.04,10.0,West,4.6,-,N/A,,Partly Cloudy,260,2013-03-08 02:53:00
7:53 PM,37.9,30.9,76,30.06,10.0,West,9.2,-,N/A,,Clear,270,2013-03-08 03:53:00
8:53 PM,35.1,28.0,76,30.07,10.0,WSW,8.1,-,N/A,,Clear,250,2013-03-08 04:53:00
9:53 PM,34.0,28.0,79,30.07,10.0,West,8.1,-,N/A,,Clear,280,2013-03-08 05:53:00
10:53 PM,34.0,28.0,79,30.07,10.0,West,8.1,-,N/A,,Clear,270,2013-03-08 06:53:00
11:53 PM,32.0,27.0,82,30.07,10.0,West,9.2,-,N/A,,Clear,270,2013-03-08 07:53:00